Weather History for Wildwood, NJ

Change the Weather History Date:

Saturday, February 9, 2013

  Actual Average Record
Temperature  
Mean Temperature 32 °F -  
Max Temperature 35 °F 41 °F 59 °F (2001)
Min Temperature 28 °F 28 °F 17 °F (2011)
Degree Days  
Heating Degree Days 34    
Moisture  
Dew Point 18 °F    
Average Humidity 57    
Maximum Humidity 87    
Minimum Humidity 44    
Precipitation  
Precipitation 0.02 in - - ()
Sea Level Pressure  
Sea Level Pressure 30.10 in    
Wind  
Wind Speed 16 mph (NW)    
Max Wind Speed 22 mph    
Max Gust Speed 34 mph    
Visibility 10 miles    
Events      
Averages and records for this station are not official NWS values.
T = Trace of Precipitation, MM = Missing Value Source: NWS Daily Summary

Daily Weather History Graph

Daily Weather History Graph

Search for Another Location

Airport:

Trip Planner

Search our weather history database for the weather conditions in past years. The results will help you decide how hot, cold, wet, or windy it might be!

Date:

Astronomy

Feb. 09, 2013 Rise Set
Actual Time 6:57 AM EST 5:30 PM EST
Civil Twilight 6:30 AM EST 5:58 PM EST
Nautical Twilight 5:58 AM EST 6:29 PM EST
Astronomical Twilight 5:27 AM EST 7:00 PM EST
Moon 6:07 AM EST (2/9) 5:10 PM EST (2/9)
Length of Visible Light 11h 27m
Length of Day
10h 32m
Waning Crescent, 0% of the Moon is Illuminated
Feb 9
Waning Crescent
Feb 10
New
Feb 17
First Quarter
Feb 25
Full
Mar 4
Last Quarter

Hourly Weather History & Observations

Time (EST) Temp. Windchill Dew Point Humidity Pressure Visibility Wind Dir Wind Speed Gust Speed Precip Events Conditions
12:15 AM 35.6 °F 28.0 °F 32.0 °F 87% 29.78 in 10.0 mi NW 10.4 mph 19.6 mph N/A   Overcast
12:35 AM 35.6 °F 27.5 °F 30.2 °F 81% 29.79 in 10.0 mi NW 11.5 mph 21.9 mph N/A   Overcast
12:55 AM 35.6 °F 26.2 °F 28.4 °F 75% 29.79 in 10.0 mi NW 15.0 mph 27.6 mph N/A   Overcast
1:15 AM 35.6 °F 24.8 °F 26.6 °F 70% 29.80 in 10.0 mi NW 19.6 mph 31.1 mph N/A   Overcast
1:35 AM 35.6 °F 24.8 °F 24.8 °F 65% 29.81 in 10.0 mi WNW 19.6 mph 29.9 mph N/A   Overcast
1:55 AM 33.8 °F 24.8 °F 24.8 °F 70% 29.82 in 10.0 mi NW 12.7 mph 31.1 mph N/A   Overcast
2:15 AM 33.8 °F 24.3 °F 24.8 °F 70% 29.83 in 10.0 mi NW 13.8 mph 27.6 mph N/A   Overcast
2:35 AM 33.8 °F 22.2 °F 23.0 °F 65% 29.84 in 10.0 mi NW 20.7 mph 34.5 mph N/A   Overcast
2:55 AM 33.8 °F 24.3 °F 21.2 °F 60% 29.85 in 10.0 mi NW 13.8 mph 29.9 mph N/A   Overcast
3:15 AM 32.0 °F 20.1 °F 21.2 °F 64% 29.86 in 10.0 mi WNW 19.6 mph 31.1 mph N/A   Overcast
3:35 AM 32.0 °F 19.5 °F 19.4 °F 60% 29.88 in 10.0 mi WNW 21.9 mph 33.4 mph N/A   Overcast
3:55 AM 30.2 °F 17.4 °F 19.4 °F 64% 29.89 in 10.0 mi WNW 20.7 mph 33.4 mph N/A   Overcast
4:15 AM 30.2 °F 18.5 °F 19.4 °F 64% 29.90 in 10.0 mi NW 17.3 mph 28.8 mph N/A   Overcast
4:35 AM 30.2 °F 18.9 °F 19.4 °F 64% 29.91 in 10.0 mi NW 16.1 mph 29.9 mph N/A   Overcast
4:55 AM 30.2 °F 18.5 °F 19.4 °F 64% 29.92 in 10.0 mi NW 17.3 mph 27.6 mph N/A   Mostly Cloudy
5:15 AM 28.4 °F 15.8 °F 19.4 °F 69% 29.94 in 10.0 mi NW 18.4 mph 32.2 mph N/A   Overcast
5:35 AM 28.4 °F 15.4 °F 19.4 °F 69% 29.95 in 10.0 mi NW 19.6 mph 28.8 mph N/A   Overcast
5:55 AM 28.4 °F 15.8 °F 19.4 °F 69% 29.95 in 10.0 mi NW 18.4 mph 26.5 mph N/A   Overcast
6:15 AM 28.4 °F 14.7 °F 17.6 °F 64% 29.96 in 10.0 mi NW 21.9 mph 29.9 mph N/A   Mostly Cloudy
6:35 AM 28.4 °F 15.4 °F 17.6 °F 64% 29.97 in 10.0 mi NW 19.6 mph 27.6 mph N/A   Scattered Clouds
6:55 AM 28.4 °F 15.4 °F 15.8 °F 59% 29.99 in 10.0 mi NW 19.6 mph 28.8 mph N/A   Clear
7:15 AM 28.4 °F 14.7 °F 17.6 °F 64% 30.00 in 10.0 mi NW 21.9 mph 33.4 mph N/A   Clear
7:35 AM 28.4 °F 15.4 °F 17.6 °F 64% 30.01 in 10.0 mi NW 19.6 mph 34.5 mph N/A   Clear
7:55 AM 28.4 °F 15.8 °F 15.8 °F 59% 30.03 in 10.0 mi NW 18.4 mph 33.4 mph N/A   Clear
8:15 AM 28.4 °F 15.1 °F 17.6 °F 64% 30.05 in 10.0 mi WNW 20.7 mph 29.9 mph N/A   Clear
8:35 AM 28.4 °F 16.6 °F 15.8 °F 59% 30.05 in 10.0 mi NW 16.1 mph 26.5 mph N/A   Clear
8:55 AM 28.4 °F 15.4 °F 15.8 °F 59% 30.05 in 10.0 mi NW 19.6 mph 31.1 mph N/A   Clear
9:15 AM 28.4 °F 16.2 °F 15.8 °F 59% 30.07 in 10.0 mi NW 17.3 mph 29.9 mph N/A   Clear
9:35 AM 30.2 °F 18.5 °F 15.8 °F 55% 30.07 in 10.0 mi NW 17.3 mph 28.8 mph N/A   Clear
9:55 AM 30.2 °F 17.8 °F 15.8 °F 55% 30.08 in 10.0 mi NW 19.6 mph 27.6 mph N/A   Clear
10:15 AM 30.2 °F 18.9 °F 15.8 °F 55% 30.09 in 10.0 mi NW 16.1 mph 28.8 mph N/A   Clear
10:35 AM 30.2 °F 18.5 °F 15.8 °F 55% 30.09 in 10.0 mi NW 17.3 mph 31.1 mph N/A   Clear
10:55 AM 30.2 °F 17.8 °F 15.8 °F 55% 30.11 in 10.0 mi NW 19.6 mph 28.8 mph N/A   Clear
11:15 AM 30.2 °F 18.5 °F 15.8 °F 55% 30.12 in 10.0 mi NW 17.3 mph 27.6 mph N/A   Clear
11:35 AM 32.0 °F 20.1 °F 17.6 °F 55% 30.11 in 10.0 mi WNW 19.6 mph 29.9 mph N/A   Clear
11:55 AM 32.0 °F 20.5 °F 17.6 °F 55% 30.12 in 10.0 mi WNW 18.4 mph 29.9 mph N/A   Clear
12:15 PM 33.8 °F 24.3 °F 17.6 °F 52% 30.13 in 10.0 mi NW 13.8 mph 33.4 mph N/A   Clear
12:35 PM 33.8 °F 22.5 °F 19.4 °F 56% 30.13 in 10.0 mi WNW 19.6 mph 27.6 mph N/A   Clear
12:55 PM 33.8 °F 23.9 °F 19.4 °F 56% 30.14 in 10.0 mi WNW 15.0 mph 28.8 mph N/A   Clear
1:15 PM 33.8 °F 22.8 °F 19.4 °F 56% 30.13 in 10.0 mi WNW 18.4 mph 29.9 mph N/A   Clear
1:35 PM 33.8 °F 23.2 °F 19.4 °F 56% 30.14 in 10.0 mi NW 17.3 mph 31.1 mph N/A   Clear
1:55 PM 35.6 °F 25.2 °F 17.6 °F 48% 30.14 in 10.0 mi WNW 18.4 mph 28.8 mph N/A   Clear
2:15 PM 35.6 °F 25.2 °F 19.4 °F 52% 30.15 in 10.0 mi NW 18.4 mph 25.3 mph N/A   Clear
2:35 PM 35.6 °F 25.5 °F 19.4 °F 52% 30.15 in 10.0 mi NW 17.3 mph 29.9 mph N/A   Clear
2:55 PM 35.6 °F 26.2 °F 19.4 °F 52% 30.16 in 10.0 mi NW 15.0 mph 32.2 mph N/A   Clear
3:15 PM 35.6 °F 26.2 °F 19.4 °F 52% 30.17 in 10.0 mi NW 15.0 mph 23.0 mph N/A   Clear
3:55 PM 35.6 °F 25.5 °F 17.6 °F 48% 30.19 in 10.0 mi WNW 17.3 mph 26.5 mph N/A   Clear
4:15 PM 35.6 °F 26.6 °F 17.6 °F 48% 30.20 in 10.0 mi WNW 13.8 mph 29.9 mph N/A   Clear
4:35 PM 35.6 °F 25.9 °F 17.6 °F 48% 30.21 in 10.0 mi WNW 16.1 mph 24.2 mph N/A   Clear
4:55 PM 33.8 °F 23.9 °F 17.6 °F 52% 30.22 in 10.0 mi NW 15.0 mph 28.8 mph N/A   Clear
5:15 PM 33.8 °F 24.3 °F 17.6 °F 52% 30.23 in 10.0 mi NW 13.8 mph 23.0 mph N/A   Clear
5:35 PM 33.8 °F 25.3 °F 15.8 °F 48% 30.24 in 10.0 mi NW 11.5 mph 23.0 mph N/A   Clear
5:55 PM 33.8 °F 25.3 °F 17.6 °F 52% 30.25 in 10.0 mi NW 11.5 mph 25.3 mph N/A   Clear
6:15 PM 33.8 °F 23.5 °F 15.8 °F 48% 30.25 in 10.0 mi NW 16.1 mph 23.0 mph N/A   Clear
6:35 PM 33.8 °F 25.3 °F 15.8 °F 48% 30.26 in 10.0 mi NW 11.5 mph 21.9 mph N/A   Clear
6:55 PM 33.8 °F 23.5 °F 15.8 °F 48% 30.27 in 10.0 mi NW 16.1 mph 25.3 mph N/A   Clear
7:15 PM 32.0 °F 21.6 °F 15.8 °F 51% 30.27 in 10.0 mi NW 15.0 mph 23.0 mph N/A   Clear
7:35 PM 32.0 °F 20.8 °F 15.8 °F 51% 30.28 in 10.0 mi NW 17.3 mph 24.2 mph N/A   Clear
7:55 PM 32.0 °F 22.1 °F 15.8 °F 51% 30.30 in 10.0 mi NW 13.8 mph 29.9 mph N/A   Clear
8:35 PM 32.0 °F 21.6 °F 14.0 °F 48% 30.32 in 10.0 mi NW 15.0 mph 25.3 mph N/A   Clear
8:55 PM 32.0 °F 22.5 °F 14.0 °F 48% 30.32 in 10.0 mi NW 12.7 mph 21.9 mph N/A   Clear
9:15 PM 32.0 °F 22.1 °F 15.8 °F 51% 30.32 in 10.0 mi NW 13.8 mph 20.7 mph N/A   Clear
9:35 PM 32.0 °F 22.5 °F 12.2 °F 44% 30.33 in 10.0 mi NW 12.7 mph 23.0 mph N/A   Clear
9:55 PM 30.2 °F 20.2 °F 12.2 °F 47% 30.33 in 10.0 mi NW 12.7 mph 21.9 mph N/A   Clear
10:15 PM 30.2 °F 20.2 °F 12.2 °F 47% 30.33 in 10.0 mi NNW 12.7 mph 20.7 mph N/A   Clear
10:35 PM 30.2 °F 20.2 °F 12.2 °F 47% 30.34 in 10.0 mi NNW 12.7 mph 18.4 mph N/A   Clear
10:55 PM 30.2 °F 19.8 °F 12.2 °F 47% 30.34 in 10.0 mi NNW 13.8 mph 19.6 mph N/A   Clear
11:15 PM 30.2 °F 19.8 °F 12.2 °F 47% 30.35 in 10.0 mi NNW 13.8 mph 20.7 mph N/A   Clear
11:35 PM 28.4 °F 18.0 °F 12.2 °F 51% 30.36 in 10.0 mi NNW 12.7 mph 19.6 mph N/A   Clear
11:55 PM 28.4 °F 18.5 °F 12.2 °F 51% 30.37 in 10.0 mi NNW 11.5 mph 18.4 mph N/A   Clear